owner,sensor,date,latitude,longitude,vertical_datum,wind_speed,wind_to_direction,wind_speed_of_gust,qcFlag 
TABS,ioos:station:wmo:42047:1,2008-12-01T00:09:00Z,27.8966,-93.5973,4.0,9.228157996,307.2050877,14.11,'11111222,11111222,11111222' 
TABS,ioos:station:wmo:42047:1,2008-12-01T00:39:00Z,27.8966,-93.5973,4.0,9.350534744,309.83686,14.21,'11111222,11111222,11111222' 
TABS,ioos:station:wmo:42047:1,2008-12-01T01:09:00Z,27.8966,-93.5973,4.0,9.191583106,318.0868083,14.35,'11111222,11111222,11111222' 
TABS,ioos:station:wmo:42047:1,2008-12-01T01:39:00Z,27.8966,-93.5973,4.0,9.411721415,315.3012215,15.3,'11111222,11111222,11111222' 
TABS,ioos:station:wmo:42047:1,2008-12-01T02:09:00Z,27.8966,-93.5973,4.0,9.992036829,308.4985239,15.18,'11111222,11111222,11111222' 
TABS,ioos:station:wmo:42047:1,2008-12-01T02:39:00Z,27.8966,-93.5973,4.0,9.84229648,304.8202523,14.24,'11111222,11111222,11111222' 
TABS,ioos:station:wmo:42047:1,2008-12-01T03:09:00Z,27.8966,-93.5973,4.0,8.826550855,304.6622288,13.56,'11111222,11111222,11111222' 
TABS,ioos:station:wmo:42047:1,2008-12-01T03:39:00Z,27.8966,-93.5973,4.0,9.937227984,311.6956886,14.93,'11111222,11111222,11111222' 
TABS,ioos:station:wmo:42047:1,2008-12-01T04:09:00Z,27.8966,-93.5973,4.0,9.189891185,313.1920873,14.0,'11111222,11111222,11111222' 
TABS,ioos:station:wmo:42047:1,2008-12-01T04:39:00Z,27.8966,-93.5973,4.0,9.189891185,313.1920873,13.73,'11111222,11111222,11111222' 
TABS,ioos:station:wmo:42047:1,2008-12-01T05:09:00Z,27.8966,-93.5973,4.0,8.827241925,313.6228608,13.46,'11111222,11111222,11111222' 
TABS,ioos:station:wmo:42047:1,2008-12-01T05:39:00Z,27.8966,-93.5973,4.0,8.033181188,314.3946816,12.61,'11111222,11111222,11111222' 
TABS,ioos:station:wmo:42047:1,2008-12-01T06:09:00Z,27.8966,-93.5973,4.0,7.488017094,323.2524045,11.51,'11111222,11111222,11111222' 
TABS,ioos:station:wmo:42047:1,2008-12-01T06:39:00Z,27.8966,-93.5973,4.0,7.833575174,317.2243526,12.42,'11111222,11111222,11111222' 
TABS,ioos:station:wmo:42047:1,2008-12-01T07:09:00Z,27.8966,-93.5973,4.0,8.204827847,316.3826246,13.23,'11111222,11111222,11111222' 
TABS,ioos:station:wmo:42047:1,2008-12-01T07:39:00Z,27.8966,-93.5973,4.0,8.126013783,316.0469571,13.18,'11111222,11111222,11111222' 
TABS,ioos:station:wmo:42047:1,2008-12-01T08:09:00Z,27.8966,-93.5973,4.0,8.274357981,315.9792121,13.26,'11111222,11111222,11111222' 
TABS,ioos:station:wmo:42047:1,2008-12-01T08:39:00Z,27.8966,-93.5973,4.0,7.698844069,302.2656338,11.49,'11111222,11111222,11111222' 
TABS,ioos:station:wmo:42047:1,2008-12-01T09:09:00Z,27.8966,-93.5973,4.0,8.178630692,311.1331069,13.03,'11111222,11111222,11111222' 
TABS,ioos:station:wmo:42047:1,2008-12-01T09:39:00Z,27.8966,-93.5973,4.0,9.574737594,315.5922954,13.94,'11111222,11111222,11111222' 
TABS,ioos:station:wmo:42047:1,2008-12-01T10:09:00Z,27.8966,-93.5973,4.0,9.303746557,318.7038883,13.97,'11111222,11111222,11111222' 
TABS,ioos:station:wmo:42047:1,2008-12-01T10:39:00Z,27.8966,-93.5973,4.0,7.845285208,307.9069217,11.89,'11111222,11111222,11111222' 
TABS,ioos:station:wmo:42047:1,2008-12-01T11:09:00Z,27.8966,-93.5973,4.0,9.058587086,300.8118217,14.28,'11111222,11111222,11111222' 
TABS,ioos:station:wmo:42047:1,2008-12-01T11:39:00Z,27.8966,-93.5973,4.0,10.0346699,292.808674,14.72,'11111222,11111222,11111222' 
TABS,ioos:station:wmo:42047:1,2008-12-01T12:09:00Z,27.8966,-93.5973,4.0,10.43472089,294.0349096,15.09,'11111222,11111222,11111222' 
TABS,ioos:station:wmo:42047:1,2008-12-01T12:39:00Z,27.8966,-93.5973,4.0,10.51553613,287.6595233,15.9,'11111222,11111222,11111222' 
TABS,ioos:station:wmo:42047:1,2008-12-01T13:09:00Z,27.8966,-93.5973,4.0,10.88175078,291.8502456,15.95,'11111222,11111222,11111222' 
TABS,ioos:station:wmo:42047:1,2008-12-01T13:39:00Z,27.8966,-93.5973,4.0,9.718981428,316.5007473,13.89,'11111222,11111222,11111222' 
TABS,ioos:station:wmo:42047:1,2008-12-01T14:09:00Z,27.8966,-93.5973,4.0,7.95871849,308.3673957,12.89,'11111222,11111222,11111222' 
TABS,ioos:station:wmo:42047:1,2008-12-01T14:39:00Z,27.8966,-93.5973,4.0,8.002755775,299.5760867,12.84,'11111222,11111222,11111222' 
TABS,ioos:station:wmo:42047:1,2008-12-01T15:09:00Z,27.8966,-93.5973,4.0,9.045623251,308.4915509,13.69,'11111222,11111222,11111222' 
TABS,ioos:station:wmo:42047:1,2008-12-01T15:39:00Z,27.8966,-93.5973,4.0,9.262920706,309.0847663,13.85,'11111222,11111222,11111222' 
TABS,ioos:station:wmo:42047:1,2008-12-01T16:09:00Z,27.8966,-93.5973,4.0,8.360382766,307.4180784,12.98,'11111222,11111222,11111222' 
TABS,ioos:station:wmo:42047:1,2008-12-01T16:39:00Z,27.8966,-93.5973,4.0,8.987736089,301.9039481,14.34,'11111222,11111222,11111222' 
TABS,ioos:station:wmo:42047:1,2008-12-01T17:09:00Z,27.8966,-93.5973,4.0,8.96974916,303.264797,13.1,'11111222,11111222,11111222' 
TABS,ioos:station:wmo:42047:1,2008-12-01T17:39:00Z,27.8966,-93.5973,4.0,9.78636807,314.9170977,15.24,'11111222,11111222,11111222' 
TABS,ioos:station:wmo:42047:1,2008-12-01T18:09:00Z,27.8966,-93.5973,4.0,10.006328,312.7319455,15.68,'11111222,11111222,11111222' 
TABS,ioos:station:wmo:42047:1,2008-12-01T18:39:00Z,27.8966,-93.5973,4.0,8.827241925,313.6228608,14.45,'11111222,11111222,11111222' 
TABS,ioos:station:wmo:42047:1,2008-12-01T19:09:00Z,27.8966,-93.5973,4.0,8.594469152,308.2432567,14.94,'11111222,11111222,11111222' 
TABS,ioos:station:wmo:42047:1,2008-12-01T19:39:00Z,27.8966,-93.5973,4.0,8.766327623,308.1901756,14.03,'11111222,11111222,11111222' 
TABS,ioos:station:wmo:42047:1,2008-12-01T20:09:00Z,27.8966,-93.5973,4.0,9.594441099,312.0004306,15.79,'11111222,11111222,11111222' 
TABS,ioos:station:wmo:42047:1,2008-12-01T20:39:00Z,27.8966,-93.5973,4.0,9.052601836,310.3403299,14.98,'11111222,11111222,11111222' 
TABS,ioos:station:wmo:42047:1,2008-12-01T21:09:00Z,27.8966,-93.5973,4.0,9.477578805,304.293608,14.78,'11111222,11111222,11111222' 
TABS,ioos:station:wmo:42047:1,2008-12-01T21:39:00Z,27.8966,-93.5973,4.0,9.09901643,306.0134004,13.93,'11111222,11111222,11111222' 
TABS,ioos:station:wmo:42047:1,2008-12-01T22:09:00Z,27.8966,-93.5973,4.0,9.809062137,299.2304109,14.82,'11111222,11111222,11111222' 
TABS,ioos:station:wmo:42047:1,2008-12-01T22:39:00Z,27.8966,-93.5973,4.0,9.270868352,296.8690152,14.13,'11111222,11111222,11111222' 
TABS,ioos:station:wmo:42047:1,2008-12-01T23:09:00Z,27.8966,-93.5973,4.0,9.012818649,300.3204299,14.05,'11111222,11111222,11111222' 
TABS,ioos:station:wmo:42047:1,2008-12-01T23:39:00Z,27.8966,-93.5973,4.0,8.434417585,303.2943329,12.87,'11111222,11111222,11111222' 
TABS,ioos:station:wmo:42047:1,2008-12-02T00:09:00Z,27.8966,-93.5973,4.0,8.611074265,318.106643,13.06,'11111222,11111222,11111222' 
TABS,ioos:station:wmo:42047:1,2008-12-02T00:39:00Z,27.8966,-93.5973,4.0,10.04852228,319.8438838,15.81,'11111222,11111222,11111222' 
TABS,ioos:station:wmo:42047:1,2008-12-02T01:09:00Z,27.8966,-93.5973,4.0,8.888245046,323.555433,13.78,'11111222,11111222,11111222' 
TABS,ioos:station:wmo:42047:1,2008-12-02T01:39:00Z,27.8966,-93.5973,4.0,8.842002036,323.0910985,15.01,'11111222,11111222,11111222' 
TABS,ioos:station:wmo:42047:1,2008-12-02T02:09:00Z,27.8966,-93.5973,4.0,9.210629729,324.9466978,14.91,'11111222,11111222,11111222' 
TABS,ioos:station:wmo:42047:1,2008-12-02T02:39:00Z,27.8966,-93.5973,4.0,8.584573373,329.9403972,14.32,'11111222,11111222,11111222' 
TABS,ioos:station:wmo:42047:1,2008-12-02T03:09:00Z,27.8966,-93.5973,4.0,8.427484797,341.4573874,14.11,'11111222,11111222,11111222' 
TABS,ioos:station:wmo:42047:1,2008-12-02T03:39:00Z,27.8966,-93.5973,4.0,7.861768249,356.8644354,12.68,'11111222,11111222,11111222' 
TABS,ioos:station:wmo:42047:1,2008-12-02T04:09:00Z,27.8966,-93.5973,4.0,7.00931523,353.1992353,11.18,'11111222,11111222,11111222' 
TABS,ioos:station:wmo:42047:1,2008-12-02T04:39:00Z,27.8966,-93.5973,4.0,6.571362111,352.8315315,10.43,'11111222,11111222,11111222' 
TABS,ioos:station:wmo:42047:1,2008-12-02T05:09:00Z,27.8966,-93.5973,4.0,6.621495299,3.376404739,12.78,'11111222,11111222,11111222' 
TABS,ioos:station:wmo:42047:1,2008-12-02T05:39:00Z,27.8966,-93.5973,4.0,5.767807209,357.0183353,9.34,'11111222,11111222,11111222' 
TABS,ioos:station:wmo:42047:1,2008-12-02T06:09:00Z,27.8966,-93.5973,4.0,5.785265767,355.8365651,9.34,'11111222,11111222,11111222' 
TABS,ioos:station:wmo:42047:1,2008-12-02T06:39:00Z,27.8966,-93.5973,4.0,4.35225229,358.156428,9.61,'11111222,11111222,11111222' 
TABS,ioos:station:wmo:42047:1,2008-12-02T07:09:00Z,27.8966,-93.5973,4.0,4.948949383,338.671405,9.49,'11111222,11111222,11111222' 
TABS,ioos:station:wmo:42047:1,2008-12-02T07:39:00Z,27.8966,-93.5973,4.0,4.826851976,344.005516,9.99,'11111222,11111222,11111222' 
TABS,ioos:station:wmo:42047:1,2008-12-02T08:09:00Z,27.8966,-93.5973,4.0,4.962297855,349.5503858,8.16,'11111222,11111222,11111222' 
TABS,ioos:station:wmo:42047:1,2008-12-02T08:39:00Z,27.8966,-93.5973,4.0,3.304905445,344.1973125,7.26,'11111222,11111222,11111222' 
TABS,ioos:station:wmo:42047:1,2008-12-02T10:09:00Z,27.8966,-93.5973,4.0,2.277827913,49.80762703,5.18,'11111222,11111222,11111222' 
TABS,ioos:station:wmo:42047:1,2008-12-02T10:39:00Z,27.8966,-93.5973,4.0,1.769180601,10.42047757,4.19,'11111222,11111222,11111222' 
TABS,ioos:station:wmo:42047:1,2008-12-02T11:09:00Z,27.8966,-93.5973,4.0,1.040432602,35.21730016,3.73,'11111222,11111222,11111222' 
TABS,ioos:station:wmo:42047:1,2008-12-02T11:39:00Z,27.8966,-93.5973,4.0,1.792037946,68.73256862,3.84,'11111222,11111222,11111222' 
TABS,ioos:station:wmo:42047:1,2008-12-02T12:09:00Z,27.8966,-93.5973,4.0,1.261150269,79.49158151,3.61,'11111222,11111222,11111222' 
TABS,ioos:station:wmo:42047:1,2008-12-02T12:39:00Z,27.8966,-93.5973,4.0,1.854427135,99.31033932,3.81,'11111222,11111222,11111222' 
TABS,ioos:station:wmo:42047:1,2008-12-02T13:09:00Z,27.8966,-93.5973,4.0,1.560512736,88.5307818,4.31,'11111222,11111222,11111222' 
TABS,ioos:station:wmo:42047:1,2008-12-02T13:39:00Z,27.8966,-93.5973,4.0,1.485563866,114.6677545,3.96,'11111222,11111222,11111222' 
TABS,ioos:station:wmo:42047:1,2008-12-02T14:09:00Z,27.8966,-93.5973,4.0,2.216348348,140.4926274,4.99,'11111222,11111222,11111222' 
TABS,ioos:station:wmo:42047:1,2008-12-02T14:39:00Z,27.8966,-93.5973,4.0,2.675256997,137.4240814,5.6,'11111222,11111222,11111222' 
TABS,ioos:station:wmo:42047:1,2008-12-02T15:09:00Z,27.8966,-93.5973,4.0,2.796926885,157.2858512,5.53,'11111222,11111222,11111222' 
TABS,ioos:station:wmo:42047:1,2008-12-02T15:39:00Z,27.8966,-93.5973,4.0,3.961376024,131.2134621,6.72,'11111222,11111222,11111222' 
TABS,ioos:station:wmo:42047:1,2008-12-02T16:09:00Z,27.8966,-93.5973,4.0,3.555348084,116.56541,5.83,'11111222,11111222,11111222' 
TABS,ioos:station:wmo:42047:1,2008-12-02T16:39:00Z,27.8966,-93.5973,4.0,3.518763988,132.1206681,5.67,'11111222,11111222,11111222' 
TABS,ioos:station:wmo:42047:1,2008-12-02T17:09:00Z,27.8966,-93.5973,4.0,3.726620453,127.9157695,5.98,'11111222,11111222,11111222' 
TABS,ioos:station:wmo:42047:1,2008-12-02T17:39:00Z,27.8966,-93.5973,4.0,4.133098112,145.3489756,6.94,'11111222,11111222,11111222' 
TABS,ioos:station:wmo:42047:1,2008-12-02T18:09:00Z,27.8966,-93.5973,4.0,3.928676622,155.3269866,5.98,'11111222,11111222,11111222' 
TABS,ioos:station:wmo:42047:1,2008-12-02T18:39:00Z,27.8966,-93.5973,4.0,3.110064308,147.7410376,5.99,'11111222,11111222,11111222' 
TABS,ioos:station:wmo:42047:1,2008-12-02T19:09:00Z,27.8966,-93.5973,4.0,3.228002478,163.8110421,6.03,'11111222,11111222,11111222' 
TABS,ioos:station:wmo:42047:1,2008-12-02T19:39:00Z,27.8966,-93.5973,4.0,3.5806424,160.2495584,5.5,'11111222,11111222,11111222' 
TABS,ioos:station:wmo:42047:1,2008-12-02T20:09:00Z,27.8966,-93.5973,4.0,3.65321776,167.0291348,6.52,'11111222,11111222,11111222' 
TABS,ioos:station:wmo:42047:1,2008-12-02T20:39:00Z,27.8966,-93.5973,4.0,4.544854233,154.732047,8.37,'11111222,11111222,11111222' 
TABS,ioos:station:wmo:42047:1,2008-12-02T21:09:00Z,27.8966,-93.5973,4.0,4.921107599,166.2463812,6.89,'11111222,11111222,11111222' 
TABS,ioos:station:wmo:42047:1,2008-12-02T21:39:00Z,27.8966,-93.5973,4.0,4.797103293,169.0650866,8.18,'11111222,11111222,11111222' 
TABS,ioos:station:wmo:42047:1,2008-12-02T22:09:00Z,27.8966,-93.5973,4.0,5.285470651,170.3062341,8.26,'11111222,11111222,11111222' 
TABS,ioos:station:wmo:42047:1,2008-12-02T22:39:00Z,27.8966,-93.5973,4.0,5.966380813,166.0338725,10.35,'11111222,11111222,11111222' 
TABS,ioos:station:wmo:42047:1,2008-12-02T23:09:00Z,27.8966,-93.5973,4.0,6.287455765,159.5188725,9.31,'11111222,11111222,11111222' 
TABS,ioos:station:wmo:42047:1,2008-12-02T23:39:00Z,27.8966,-93.5973,4.0,6.317230406,163.917811,9.51,'11111222,11111222,11111222' 
TABS,ioos:station:wmo:42047:1,2008-12-03T00:09:00Z,27.8966,-93.5973,4.0,6.976603758,158.0310983,10.25,'11111222,11111222,11111222' 
TABS,ioos:station:wmo:42047:1,2008-12-03T00:39:00Z,27.8966,-93.5973,4.0,6.98507695,165.7451633,10.05,'11111222,11111222,11111222' 
TABS,ioos:station:wmo:42047:1,2008-12-03T01:09:00Z,27.8966,-93.5973,4.0,7.186410787,166.2347163,10.58,'11111222,11111222,11111222' 
TABS,ioos:station:wmo:42047:1,2008-12-03T01:39:00Z,27.8966,-93.5973,4.0,7.506830223,166.5193522,10.52,'11111222,11111222,11111222' 
TABS,ioos:station:wmo:42047:1,2008-12-03T02:09:00Z,27.8966,-93.5973,4.0,7.412131947,164.4264826,11.59,'11111222,11111222,11111222' 
TABS,ioos:station:wmo:42047:1,2008-12-03T02:39:00Z,27.8966,-93.5973,4.0,7.476148741,168.2694626,10.77,'11111222,11111222,11111222' 
TABS,ioos:station:wmo:42047:1,2008-12-03T03:09:00Z,27.8966,-93.5973,4.0,7.829074019,166.1059962,10.78,'11111222,11111222,11111222' 
TABS,ioos:station:wmo:42047:1,2008-12-03T03:39:00Z,27.8966,-93.5973,4.0,7.664365597,166.4172787,11.39,'11111222,11111222,11111222' 
TABS,ioos:station:wmo:42047:1,2008-12-03T04:09:00Z,27.8966,-93.5973,4.0,8.225916362,162.3802974,12.36,'11111222,11111222,11111222' 
TABS,ioos:station:wmo:42047:1,2008-12-03T04:39:00Z,27.8966,-93.5973,4.0,8.396618367,165.7985016,12.48,'11111222,11111222,11111222' 
TABS,ioos:station:wmo:42047:1,2008-12-03T05:09:00Z,27.8966,-93.5973,4.0,8.682315359,169.9846085,12.24,'11111222,11111222,11111222' 
TABS,ioos:station:wmo:42047:1,2008-12-03T05:39:00Z,27.8966,-93.5973,4.0,8.784104963,168.9077684,12.57,'11111222,11111222,11111222' 
TABS,ioos:station:wmo:42047:1,2008-12-03T06:09:00Z,27.8966,-93.5973,4.0,8.854563795,170.3783425,12.77,'11111222,11111222,11111222' 
TABS,ioos:station:wmo:42047:1,2008-12-03T06:39:00Z,27.8966,-93.5973,4.0,9.395940613,168.5826734,13.27,'11111222,11111222,11111222' 
TABS,ioos:station:wmo:42047:1,2008-12-03T07:09:00Z,27.8966,-93.5973,4.0,9.094641279,163.0596348,13.41,'11111222,11111222,11111222' 
TABS,ioos:station:wmo:42047:1,2008-12-03T07:39:00Z,27.8966,-93.5973,4.0,9.372822414,169.9851718,13.58,'11111222,11111222,11111222' 
TABS,ioos:station:wmo:42047:1,2008-12-03T08:09:00Z,27.8966,-93.5973,4.0,9.541708442,167.3476835,13.27,'11111222,11111222,11111222' 
TABS,ioos:station:wmo:42047:1,2008-12-03T08:39:00Z,27.8966,-93.5973,4.0,9.568970687,171.3451152,13.75,'11111222,11111222,11111222' 
TABS,ioos:station:wmo:42047:1,2008-12-03T09:09:00Z,27.8966,-93.5973,4.0,9.722185968,166.9216971,14.57,'11111222,11111222,11111222' 
TABS,ioos:station:wmo:42047:1,2008-12-03T09:39:00Z,27.8966,-93.5973,4.0,9.490105373,168.5126992,13.62,'11111222,11111222,11111222' 
TABS,ioos:station:wmo:42047:1,2008-12-03T10:09:00Z,27.8966,-93.5973,4.0,9.640580895,170.9287341,14.02,'11111222,11111222,11111222' 
TABS,ioos:station:wmo:42047:1,2008-12-03T10:39:00Z,27.8966,-93.5973,4.0,9.444913975,164.021521,14.16,'11111222,11111222,11111222' 
TABS,ioos:station:wmo:42047:1,2008-12-03T11:09:00Z,27.8966,-93.5973,4.0,8.956896784,169.9700206,13.45,'11111222,11111222,11111222' 
TABS,ioos:station:wmo:42047:1,2008-12-03T11:39:00Z,27.8966,-93.5973,4.0,9.262667003,165.5589313,13.46,'11111222,11111222,11111222' 
TABS,ioos:station:wmo:42047:1,2008-12-03T12:09:00Z,27.8966,-93.5973,4.0,9.20307014,165.0126835,13.75,'11111222,11111222,11111222' 
TABS,ioos:station:wmo:42047:1,2008-12-03T12:39:00Z,27.8966,-93.5973,4.0,9.907017715,162.9187815,14.03,'11111222,11111222,11111222' 
TABS,ioos:station:wmo:42047:1,2008-12-03T13:09:00Z,27.8966,-93.5973,4.0,9.297279172,166.7561928,14.52,'11111222,11111222,11111222' 
TABS,ioos:station:wmo:42047:1,2008-12-03T13:39:00Z,27.8966,-93.5973,4.0,9.442865031,171.5354701,13.97,'11111222,11111222,11111222' 
TABS,ioos:station:wmo:42047:1,2008-12-03T14:09:00Z,27.8966,-93.5973,4.0,8.906099034,167.3528077,13.09,'11111222,11111222,11111222' 
TABS,ioos:station:wmo:42047:1,2008-12-03T14:39:00Z,27.8966,-93.5973,4.0,9.845389784,167.4461833,13.94,'11111222,11111222,11111222' 
TABS,ioos:station:wmo:42047:1,2008-12-03T15:09:00Z,27.8966,-93.5973,4.0,9.607190016,165.4722038,15.06,'11111222,11111222,11111222' 
TABS,ioos:station:wmo:42047:1,2008-12-03T15:39:00Z,27.8966,-93.5973,4.0,9.581069878,167.9514251,14.07,'11111222,11111222,11111222' 
TABS,ioos:station:wmo:42047:1,2008-12-03T16:09:00Z,27.8966,-93.5973,4.0,9.71600741,165.8209755,14.36,'11111222,11111222,11111222' 
TABS,ioos:station:wmo:42047:1,2008-12-03T16:39:00Z,27.8966,-93.5973,4.0,9.665366004,167.3299775,14.49,'11111222,11111222,11111222' 
TABS,ioos:station:wmo:42047:1,2008-12-03T17:09:00Z,27.8966,-93.5973,4.0,9.552889615,168.4668161,14.53,'11111222,11111222,11111222' 
TABS,ioos:station:wmo:42047:1,2008-12-03T17:39:00Z,27.8966,-93.5973,4.0,9.494472076,169.9922541,15.43,'11111222,11111222,11111222' 
TABS,ioos:station:wmo:42047:1,2008-12-03T18:09:00Z,27.8966,-93.5973,4.0,9.333380952,166.619119,13.89,'11111222,11111222,11111222' 
TABS,ioos:station:wmo:42047:1,2008-12-03T18:39:00Z,27.8966,-93.5973,4.0,9.502047148,169.0805474,13.97,'11111222,11111222,11111222' 
TABS,ioos:station:wmo:42047:1,2008-12-03T19:09:00Z,27.8966,-93.5973,4.0,9.115421,167.5191557,13.01,'11111222,11111222,11111222' 
TABS,ioos:station:wmo:42047:1,2008-12-03T19:39:00Z,27.8966,-93.5973,4.0,9.430190878,170.1084009,13.73,'11111222,11111222,11111222' 
TABS,ioos:station:wmo:42047:1,2008-12-03T20:09:00Z,27.8966,-93.5973,4.0,9.520068277,166.5770763,14.09,'11111222,11111222,11111222' 
TABS,ioos:station:wmo:42047:1,2008-12-03T20:39:00Z,27.8966,-93.5973,4.0,9.716892507,163.9900561,15.01,'11111222,11111222,11111222' 
TABS,ioos:station:wmo:42047:1,2008-12-03T21:09:00Z,27.8966,-93.5973,4.0,9.217250132,163.551073,13.4,'11111222,11111222,11111222' 
TABS,ioos:station:wmo:42047:1,2008-12-03T21:39:00Z,27.8966,-93.5973,4.0,9.767466406,165.3522245,15.47,'11111222,11111222,11111222' 
TABS,ioos:station:wmo:42047:1,2008-12-03T22:09:00Z,27.8966,-93.5973,4.0,9.931107692,167.6153592,14.16,'11111222,11111222,11111222' 
TABS,ioos:station:wmo:42047:1,2008-12-03T22:39:00Z,27.8966,-93.5973,4.0,9.623123194,174.5740034,14.25,'11111222,11111222,11111222' 
TABS,ioos:station:wmo:42047:1,2008-12-03T23:09:00Z,27.8966,-93.5973,4.0,9.567026706,164.9762417,14.21,'11111222,11111222,11111222' 
TABS,ioos:station:wmo:42047:1,2008-12-03T23:39:00Z,27.8966,-93.5973,4.0,9.807395169,169.7215147,14.87,'11111222,11111222,11111222' 
TABS,ioos:station:wmo:42047:1,2008-12-04T00:09:00Z,27.8966,-93.5973,4.0,9.702788259,163.2274768,14.76,'11111222,11111222,11111222' 
TABS,ioos:station:wmo:42047:1,2008-12-04T00:39:00Z,27.8966,-93.5973,4.0,10.21595321,165.4879074,15.61,'11111222,11111222,11111222' 
TABS,ioos:station:wmo:42047:1,2008-12-04T01:09:00Z,27.8966,-93.5973,4.0,9.905725617,162.5530628,15.22,'11111222,11111222,11111222' 
TABS,ioos:station:wmo:42047:1,2008-12-04T01:39:00Z,27.8966,-93.5973,4.0,9.829572727,164.2390043,13.85,'11111222,11111222,11111222' 
TABS,ioos:station:wmo:42047:1,2008-12-04T02:09:00Z,27.8966,-93.5973,4.0,9.988082899,169.7928732,14.53,'11111222,11111222,11111222' 
TABS,ioos:station:wmo:42047:1,2008-12-04T02:39:00Z,27.8966,-93.5973,4.0,9.930825746,169.6747466,13.72,'11111222,11111222,11111222' 
TABS,ioos:station:wmo:42047:1,2008-12-04T03:09:00Z,27.8966,-93.5973,4.0,9.32309498,170.6793559,13.67,'11111222,11111222,11111222' 
TABS,ioos:station:wmo:42047:1,2008-12-04T03:39:00Z,27.8966,-93.5973,4.0,8.735153118,178.0320624,13.82,'11111222,11111222,11111222' 
TABS,ioos:station:wmo:42047:1,2008-12-04T04:09:00Z,27.8966,-93.5973,4.0,9.860507086,179.4191386,15.47,'11111222,11111222,11111222' 
TABS,ioos:station:wmo:42047:1,2008-12-04T04:39:00Z,27.8966,-93.5973,4.0,9.330905637,179.2019305,14.42,'11111222,11111222,11111222' 
TABS,ioos:station:wmo:42047:1,2008-12-04T05:09:00Z,27.8966,-93.5973,4.0,9.710082389,180.2362365,14.0,'11111222,11111222,11111222' 
TABS,ioos:station:wmo:42047:1,2008-12-04T05:39:00Z,27.8966,-93.5973,4.0,9.781784091,182.8128834,14.51,'11111222,11111222,11111222' 
TABS,ioos:station:wmo:42047:1,2008-12-04T06:09:00Z,27.8966,-93.5973,4.0,9.890247722,179.5946869,14.53,'11111222,11111222,11111222' 
TABS,ioos:station:wmo:42047:1,2008-12-04T06:39:00Z,27.8966,-93.5973,4.0,10.10071285,179.3195021,14.77,'11111222,11111222,11111222' 
TABS,ioos:station:wmo:42047:1,2008-12-04T07:09:00Z,27.8966,-93.5973,4.0,9.540754687,179.2795485,14.06,'11111222,11111222,11111222' 
TABS,ioos:station:wmo:42047:1,2008-12-04T07:39:00Z,27.8966,-93.5973,4.0,9.080974617,187.6573768,13.64,'11111222,11111222,11111222' 
TABS,ioos:station:wmo:42047:1,2008-12-04T08:09:00Z,27.8966,-93.5973,4.0,8.815809662,182.0804091,12.74,'11111222,11111222,11111222' 
TABS,ioos:station:wmo:42047:1,2008-12-04T08:39:00Z,27.8966,-93.5973,4.0,9.057196034,187.4861475,13.55,'11111222,11111222,11111222' 
TABS,ioos:station:wmo:42047:1,2008-12-04T09:09:00Z,27.8966,-93.5973,4.0,8.507749409,191.73276,13.21,'11111222,11111222,11111222' 
TABS,ioos:station:wmo:42047:1,2008-12-04T09:39:00Z,27.8966,-93.5973,4.0,8.32896152,190.0958357,12.54,'11111222,11111222,11111222' 
TABS,ioos:station:wmo:42047:1,2008-12-04T10:09:00Z,27.8966,-93.5973,4.0,8.190543328,197.9926875,12.42,'11111222,11111222,11111222' 
TABS,ioos:station:wmo:42047:1,2008-12-04T10:39:00Z,27.8966,-93.5973,4.0,8.261361873,194.7260888,13.48,'11111222,11111222,11111222' 
TABS,ioos:station:wmo:42047:1,2008-12-04T11:09:00Z,27.8966,-93.5973,4.0,7.585018128,335.4621184,14.56,'11111222,11111222,11111222' 
TABS,ioos:station:wmo:42047:1,2008-12-04T11:39:00Z,27.8966,-93.5973,4.0,8.76111865,0.915395426,13.63,'11111222,11111222,11111222' 
TABS,ioos:station:wmo:42047:1,2008-12-04T12:09:00Z,27.8966,-93.5973,4.0,8.361584778,356.9834076,13.98,'11111222,11111222,11111222' 
TABS,ioos:station:wmo:42047:1,2008-12-04T12:39:00Z,27.8966,-93.5973,4.0,8.090747802,0.778792341,13.41,'11111222,11111222,11111222' 
TABS,ioos:station:wmo:42047:1,2008-12-04T13:09:00Z,27.8966,-93.5973,4.0,7.95411843,351.1769761,12.87,'11111222,11111222,11111222' 
TABS,ioos:station:wmo:42047:1,2008-12-04T13:39:00Z,27.8966,-93.5973,4.0,7.390006766,0.077320814,11.23,'11111222,11111222,11111222' 
TABS,ioos:station:wmo:42047:1,2008-12-04T14:09:00Z,27.8966,-93.5973,4.0,7.158666077,354.8705885,11.38,'11111222,11111222,11111222' 
TABS,ioos:station:wmo:42047:1,2008-12-04T15:09:00Z,27.8966,-93.5973,4.0,7.227516863,352.7666293,11.16,'11111222,11111222,11111222' 
TABS,ioos:station:wmo:42047:1,2008-12-04T15:39:00Z,27.8966,-93.5973,4.0,7.172015059,358.6415699,11.72,'11111222,11111222,11111222' 
TABS,ioos:station:wmo:42047:1,2008-12-04T16:09:00Z,27.8966,-93.5973,4.0,7.112278116,358.5495766,10.69,'11111222,11111222,11111222' 
TABS,ioos:station:wmo:42047:1,2008-12-04T16:39:00Z,27.8966,-93.5973,4.0,6.709411301,4.359187192,11.08,'11111222,11111222,11111222' 
TABS,ioos:station:wmo:42047:1,2008-12-04T17:09:00Z,27.8966,-93.5973,4.0,7.827962698,5.644822028,11.82,'11111222,11111222,11111222' 
TABS,ioos:station:wmo:42047:1,2008-12-04T17:39:00Z,27.8966,-93.5973,4.0,7.366905728,6.468797706,10.94,'11111222,11111222,11111222' 
TABS,ioos:station:wmo:42047:1,2008-12-04T18:09:00Z,27.8966,-93.5973,4.0,6.88839604,2.828958763,11.16,'11111222,11111222,11111222' 
TABS,ioos:station:wmo:42047:1,2008-12-04T18:39:00Z,27.8966,-93.5973,4.0,7.298883476,2.826907508,11.48,'11111222,11111222,11111222' 
TABS,ioos:station:wmo:42047:1,2008-12-04T19:09:00Z,27.8966,-93.5973,4.0,7.999512485,2.794230227,12.48,'11111222,11111222,11111222' 
TABS,ioos:station:wmo:42047:1,2008-12-04T19:39:00Z,27.8966,-93.5973,4.0,7.707950441,2.602345658,12.3,'11111222,11111222,11111222' 